owner,sensor,date,latitude,longitude,vertical_datum,direction_of_sea_water_velocity,sea_water_speed,upward_sea_water_velocity,qcFlag 
TABS,ioos:station:wmo:42050:1,2013-06-01T00:00:00Z,28.8425,-94.2433,2.0,310.1563266,1.674753713,-99999.0,'11133222,11111222,99999999' 
TABS,ioos:station:wmo:42050:1,2013-06-01T00:30:00Z,28.8425,-94.2433,2.0,263.9271369,2.36326046,-99999.0,'11133222,11111222,99999999' 
TABS,ioos:station:wmo:42050:1,2013-06-01T01:00:00Z,28.8425,-94.2433,2.0,313.1038018,2.136632865,-99999.0,'11133222,11111222,99999999' 
TABS,ioos:station:wmo:42050:1,2013-06-01T01:30:00Z,28.8425,-94.2433,2.0,259.787468,2.763783638,-99999.0,'11133222,11111222,99999999' 
TABS,ioos:station:wmo:42050:1,2013-06-01T02:00:00Z,28.8425,-94.2433,2.0,276.3670746,4.779476959,-99999.0,'11133222,11111222,99999999' 
TABS,ioos:station:wmo:42050:1,2013-06-01T02:30:00Z,28.8425,-94.2433,2.0,249.4830825,3.395364487,-99999.0,'11133222,11111222,99999999' 
TABS,ioos:station:wmo:42050:1,2013-06-01T03:00:00Z,28.8425,-94.2433,2.0,206.3825991,2.812987735,-99999.0,'11133222,11111222,99999999' 
TABS,ioos:station:wmo:42050:1,2013-06-01T03:30:00Z,28.8425,-94.2433,2.0,226.0645365,5.707337383,-99999.0,'11133222,11111222,99999999' 
TABS,ioos:station:wmo:42050:1,2013-06-01T04:00:00Z,28.8425,-94.2433,2.0,222.4323604,6.787967295,-99999.0,'11133222,11111222,99999999' 
TABS,ioos:station:wmo:42050:1,2013-06-01T04:30:00Z,28.8425,-94.2433,2.0,240.4435903,8.656431135,-99999.0,'11133222,11111222,99999999' 
TABS,ioos:station:wmo:42050:1,2013-06-01T05:00:00Z,28.8425,-94.2433,2.0,256.2162769,6.044046658,-99999.0,'11133222,11111222,99999999' 
TABS,ioos:station:wmo:42050:1,2013-06-01T05:30:00Z,28.8425,-94.2433,2.0,271.8610658,7.083734891,-99999.0,'11133222,11111222,99999999' 
TABS,ioos:station:wmo:42050:1,2013-06-01T06:00:00Z,28.8425,-94.2433,2.0,282.001092,5.530876965,-99999.0,'11133222,11111222,99999999' 
TABS,ioos:station:wmo:42050:1,2013-06-01T06:30:00Z,28.8425,-94.2433,2.0,304.6539274,6.102565034,-99999.0,'11133222,11111222,99999999' 
TABS,ioos:station:wmo:42050:1,2013-06-01T07:00:00Z,28.8425,-94.2433,2.0,282.879481,7.80638841,-99999.0,'11133222,11111222,99999999' 
TABS,ioos:station:wmo:42050:1,2013-06-01T07:30:00Z,28.8425,-94.2433,2.0,308.9234862,7.815017594,-99999.0,'11133222,11111222,99999999' 
TABS,ioos:station:wmo:42050:1,2013-06-01T08:00:00Z,28.8425,-94.2433,2.0,316.7958294,9.027114711,-99999.0,'11133222,11111222,99999999' 
TABS,ioos:station:wmo:42050:1,2013-06-01T08:30:00Z,28.8425,-94.2433,2.0,329.628671,6.803712222,-99999.0,'11133222,11111222,99999999' 
TABS,ioos:station:wmo:42050:1,2013-06-01T09:00:00Z,28.8425,-94.2433,2.0,335.7849096,12.65336714,-99999.0,'11111222,11111222,99999999' 
TABS,ioos:station:wmo:42050:1,2013-06-01T09:30:00Z,28.8425,-94.2433,2.0,342.5806996,13.56197626,-99999.0,'11111222,11111222,99999999' 
TABS,ioos:station:wmo:42050:1,2013-06-01T10:00:00Z,28.8425,-94.2433,2.0,345.2566821,15.32456851,-99999.0,'11111222,11111222,99999999' 
TABS,ioos:station:wmo:42050:1,2013-06-01T10:30:00Z,28.8425,-94.2433,2.0,340.6206322,18.41328325,-99999.0,'11111222,11111222,99999999' 
TABS,ioos:station:wmo:42050:1,2013-06-01T11:00:00Z,28.8425,-94.2433,2.0,340.2466667,20.47484554,-99999.0,'11111222,11111222,99999999' 
TABS,ioos:station:wmo:42050:1,2013-06-01T11:30:00Z,28.8425,-94.2433,2.0,351.4721929,20.76964131,-99999.0,'11111222,11111222,99999999' 
TABS,ioos:station:wmo:42050:1,2013-06-01T12:00:00Z,28.8425,-94.2433,2.0,357.3473304,28.95102762,-99999.0,'11111222,11111222,99999999' 
TABS,ioos:station:wmo:42050:1,2013-06-01T12:30:00Z,28.8425,-94.2433,2.0,339.6981989,31.15548908,-99999.0,'11111222,11111222,99999999' 
TABS,ioos:station:wmo:42050:1,2013-06-01T13:00:00Z,28.8425,-94.2433,2.0,336.7566492,28.40552939,-99999.0,'11111222,11111222,99999999' 
TABS,ioos:station:wmo:42050:1,2013-06-01T13:30:00Z,28.8425,-94.2433,2.0,334.6828084,27.52357717,-99999.0,'11111222,11111222,99999999' 
TABS,ioos:station:wmo:42050:1,2013-06-01T14:00:00Z,28.8425,-94.2433,2.0,334.0585309,25.07675019,-99999.0,'11111222,11111222,99999999' 
TABS,ioos:station:wmo:42050:1,2013-06-01T14:30:00Z,28.8425,-94.2433,2.0,335.9509868,25.47100312,-99999.0,'11111222,11111222,99999999' 
TABS,ioos:station:wmo:42050:1,2013-06-01T15:00:00Z,28.8425,-94.2433,2.0,330.921417,22.94177412,-99999.0,'11111222,11111222,99999999' 
TABS,ioos:station:wmo:42050:1,2013-06-01T15:30:00Z,28.8425,-94.2433,2.0,333.9444564,24.65585934,-99999.0,'11111222,11111222,99999999' 
TABS,ioos:station:wmo:42050:1,2013-06-01T16:00:00Z,28.8425,-94.2433,2.0,333.2390462,20.89841382,-99999.0,'11111222,11111222,99999999' 
TABS,ioos:station:wmo:42050:1,2013-06-01T16:30:00Z,28.8425,-94.2433,2.0,328.5562357,22.50483504,-99999.0,'11111222,11111222,99999999' 
TABS,ioos:station:wmo:42050:1,2013-06-01T17:00:00Z,28.8425,-94.2433,2.0,319.1104411,17.6594479,-99999.0,'11111222,11111222,99999999' 
TABS,ioos:station:wmo:42050:1,2013-06-01T17:30:00Z,28.8425,-94.2433,2.0,325.2751678,19.34555246,-99999.0,'11111222,11111222,99999999' 
TABS,ioos:station:wmo:42050:1,2013-06-01T18:00:00Z,28.8425,-94.2433,2.0,310.3114836,17.99244286,-99999.0,'11111222,11111222,99999999' 
TABS,ioos:station:wmo:42050:1,2013-06-01T18:30:00Z,28.8425,-94.2433,2.0,300.5547464,18.96308256,-99999.0,'11111222,11111222,99999999' 
TABS,ioos:station:wmo:42050:1,2013-06-01T19:00:00Z,28.8425,-94.2433,2.0,273.2939321,18.45047425,-99999.0,'11111222,11111222,99999999' 
TABS,ioos:station:wmo:42050:1,2013-06-01T19:30:00Z,28.8425,-94.2433,2.0,277.0597235,18.38940184,-99999.0,'11111222,11111222,99999999' 
TABS,ioos:station:wmo:42050:1,2013-06-01T20:00:00Z,28.8425,-94.2433,2.0,273.2475807,23.12713125,-99999.0,'11111222,11111222,99999999' 
TABS,ioos:station:wmo:42050:1,2013-06-01T20:30:00Z,28.8425,-94.2433,2.0,281.2927946,25.63630239,-99999.0,'11111222,11111222,99999999' 
TABS,ioos:station:wmo:42050:1,2013-06-01T21:00:00Z,28.8425,-94.2433,2.0,272.9108548,24.42150077,-99999.0,'11111222,11111222,99999999' 
TABS,ioos:station:wmo:42050:1,2013-06-01T21:30:00Z,28.8425,-94.2433,2.0,268.7727853,26.15599549,-99999.0,'11111222,11111222,99999999' 
TABS,ioos:station:wmo:42050:1,2013-06-01T22:00:00Z,28.8425,-94.2433,2.0,281.1874435,24.68911704,-99999.0,'11111222,11111222,99999999' 
TABS,ioos:station:wmo:42050:1,2013-06-01T22:30:00Z,28.8425,-94.2433,2.0,290.1587975,25.12933943,-99999.0,'11111222,11111222,99999999' 
TABS,ioos:station:wmo:42050:1,2013-06-01T23:00:00Z,28.8425,-94.2433,2.0,290.5328191,25.57466324,-99999.0,'11111222,11111222,99999999' 
TABS,ioos:station:wmo:42050:1,2013-06-01T23:30:00Z,28.8425,-94.2433,2.0,289.82685,25.00201592,-99999.0,'11111222,11111222,99999999' 
TABS,ioos:station:wmo:42050:1,2013-06-02T00:00:00Z,28.8425,-94.2433,2.0,288.3768169,24.77329611,-99999.0,'11111222,11111222,99999999' 
TABS,ioos:station:wmo:42050:1,2013-06-02T00:30:00Z,28.8425,-94.2433,2.0,298.621244,26.30414606,-99999.0,'11111222,11111222,99999999' 
TABS,ioos:station:wmo:42050:1,2013-06-02T01:00:00Z,28.8425,-94.2433,2.0,307.7822619,25.38121549,-99999.0,'11111222,11111222,99999999' 
TABS,ioos:station:wmo:42050:1,2013-06-02T01:30:00Z,28.8425,-94.2433,2.0,311.4522257,21.48065176,-99999.0,'11111222,11111222,99999999' 
TABS,ioos:station:wmo:42050:1,2013-06-02T02:00:00Z,28.8425,-94.2433,2.0,285.3938353,15.25734577,-99999.0,'11111222,11111222,99999999' 
TABS,ioos:station:wmo:42050:1,2013-06-02T02:30:00Z,28.8425,-94.2433,2.0,273.030522,36.51104627,-99999.0,'11111222,11111222,99999999' 
TABS,ioos:station:wmo:42050:1,2013-06-02T03:00:00Z,28.8425,-94.2433,2.0,290.4912106,15.42603319,-99999.0,'11111222,11111222,99999999' 
TABS,ioos:station:wmo:42050:1,2013-06-02T03:30:00Z,28.8425,-94.2433,2.0,179.2069401,16.62159138,-99999.0,'11111222,11111222,99999999' 
TABS,ioos:station:wmo:42050:1,2013-06-02T04:00:00Z,28.8425,-94.2433,2.0,294.1133914,12.75279185,-99999.0,'11111222,11111222,99999999' 
TABS,ioos:station:wmo:42050:1,2013-06-02T04:30:00Z,28.8425,-94.2433,2.0,175.5542205,14.06230778,-99999.0,'11111222,11111222,99999999' 
TABS,ioos:station:wmo:42050:1,2013-06-02T05:00:00Z,28.8425,-94.2433,2.0,355.7808354,16.1738369,-99999.0,'11111222,11111222,99999999' 
TABS,ioos:station:wmo:42050:1,2013-06-02T05:30:00Z,28.8425,-94.2433,2.0,178.579836,15.334709,-99999.0,'11111222,11111222,99999999' 
TABS,ioos:station:wmo:42050:1,2013-06-02T06:00:00Z,28.8425,-94.2433,2.0,293.1290723,7.535681787,-99999.0,'11133222,11111222,99999999' 
TABS,ioos:station:wmo:42050:1,2013-06-02T06:30:00Z,28.8425,-94.2433,2.0,327.231788,12.41579639,-99999.0,'11111222,11111222,99999999' 
TABS,ioos:station:wmo:42050:1,2013-06-02T07:00:00Z,28.8425,-94.2433,2.0,283.3787289,14.99696636,-99999.0,'11111222,11111222,99999999' 
TABS,ioos:station:wmo:42050:1,2013-06-02T07:30:00Z,28.8425,-94.2433,2.0,311.3415264,34.01753224,-99999.0,'11111222,11111222,99999999' 
TABS,ioos:station:wmo:42050:1,2013-06-02T08:00:00Z,28.8425,-94.2433,2.0,339.1322457,30.09406586,-99999.0,'11111222,11111222,99999999' 
TABS,ioos:station:wmo:42050:1,2013-06-02T08:30:00Z,28.8425,-94.2433,2.0,273.4923926,13.13438617,-99999.0,'11111222,11111222,99999999' 
TABS,ioos:station:wmo:42050:1,2013-06-02T09:00:00Z,28.8425,-94.2433,2.0,295.1127132,26.10777662,-99999.0,'11111222,11111222,99999999' 
TABS,ioos:station:wmo:42050:1,2013-06-02T09:30:00Z,28.8425,-94.2433,2.0,36.68342977,19.65210421,-99999.0,'11111222,11111222,99999999' 
TABS,ioos:station:wmo:42050:1,2013-06-02T10:00:00Z,28.8425,-94.2433,2.0,260.3184942,10.76328017,-99999.0,'11111222,11111222,99999999' 
TABS,ioos:station:wmo:42050:1,2013-06-02T10:30:00Z,28.8425,-94.2433,2.0,249.7210484,20.54330305,-99999.0,'11111222,11111222,99999999' 
TABS,ioos:station:wmo:42050:1,2013-06-02T11:00:00Z,28.8425,-94.2433,2.0,303.2907338,13.51837268,-99999.0,'11111222,11111222,99999999' 
TABS,ioos:station:wmo:42050:1,2013-06-02T11:30:00Z,28.8425,-94.2433,2.0,273.1378909,21.01149447,-99999.0,'11111222,11111222,99999999' 
TABS,ioos:station:wmo:42050:1,2013-06-02T12:00:00Z,28.8425,-94.2433,2.0,246.5449705,61.40344046,-99999.0,'11111222,11111222,99999999' 
TABS,ioos:station:wmo:42050:1,2013-06-02T12:30:00Z,28.8425,-94.2433,2.0,299.7770282,6.705318784,-99999.0,'11133222,11111222,99999999' 
TABS,ioos:station:wmo:42050:1,2013-06-02T13:00:00Z,28.8425,-94.2433,2.0,298.4655165,4.720699101,-99999.0,'11133222,11111222,99999999' 
TABS,ioos:station:wmo:42050:1,2013-06-02T13:30:00Z,28.8425,-94.2433,2.0,283.2242323,3.934323322,-99999.0,'11133222,11111222,99999999' 
TABS,ioos:station:wmo:42050:1,2013-06-02T14:00:00Z,28.8425,-94.2433,2.0,245.6019498,3.074556879,-99999.0,'11133222,11111222,99999999' 
TABS,ioos:station:wmo:42050:1,2013-06-02T14:30:00Z,28.8425,-94.2433,2.0,216.8888148,5.964000335,-99999.0,'11133222,11111222,99999999' 
TABS,ioos:station:wmo:42050:1,2013-06-02T15:00:00Z,28.8425,-94.2433,2.0,188.1541199,16.70893474,-99999.0,'11111222,11111222,99999999' 
TABS,ioos:station:wmo:42050:1,2013-06-02T15:30:00Z,28.8425,-94.2433,2.0,200.1118869,17.07096365,-99999.0,'11111222,11111222,99999999' 
TABS,ioos:station:wmo:42050:1,2013-06-02T16:00:00Z,28.8425,-94.2433,2.0,212.5546102,16.79961904,-99999.0,'11111222,11111222,99999999' 
TABS,ioos:station:wmo:42050:1,2013-06-02T16:30:00Z,28.8425,-94.2433,2.0,229.9880626,13.17379976,-99999.0,'11111222,11111222,99999999' 
TABS,ioos:station:wmo:42050:1,2013-06-02T17:00:00Z,28.8425,-94.2433,2.0,234.9016435,17.27025767,-99999.0,'11111222,11111222,99999999' 
TABS,ioos:station:wmo:42050:1,2013-06-02T17:30:00Z,28.8425,-94.2433,2.0,243.7510078,21.8646061,-99999.0,'11111222,11111222,99999999' 
TABS,ioos:station:wmo:42050:1,2013-06-02T18:00:00Z,28.8425,-94.2433,2.0,243.9262298,28.14418768,-99999.0,'11111222,11111222,99999999' 
TABS,ioos:station:wmo:42050:1,2013-06-02T18:30:00Z,28.8425,-94.2433,2.0,244.0707601,26.98653183,-99999.0,'11111222,11111222,99999999' 
TABS,ioos:station:wmo:42050:1,2013-06-02T19:00:00Z,28.8425,-94.2433,2.0,235.716187,31.60019146,-99999.0,'11111222,11111222,99999999' 
TABS,ioos:station:wmo:42050:1,2013-06-02T19:30:00Z,28.8425,-94.2433,2.0,239.1816851,34.3735727,-99999.0,'11111222,11111222,99999999' 
TABS,ioos:station:wmo:42050:1,2013-06-02T20:00:00Z,28.8425,-94.2433,2.0,240.9712128,34.02414731,-99999.0,'11111222,11111222,99999999' 
TABS,ioos:station:wmo:42050:1,2013-06-02T20:30:00Z,28.8425,-94.2433,2.0,240.6121732,33.60414409,-99999.0,'11111222,11111222,99999999' 
TABS,ioos:station:wmo:42050:1,2013-06-02T21:00:00Z,28.8425,-94.2433,2.0,246.9473969,35.98333225,-99999.0,'11111222,11111222,99999999' 
TABS,ioos:station:wmo:42050:1,2013-06-02T21:30:00Z,28.8425,-94.2433,2.0,243.6118656,36.13503148,-99999.0,'11111222,11111222,99999999' 
TABS,ioos:station:wmo:42050:1,2013-06-02T22:00:00Z,28.8425,-94.2433,2.0,232.9886386,39.7861207,-99999.0,'11111222,11111222,99999999' 
TABS,ioos:station:wmo:42050:1,2013-06-02T22:30:00Z,28.8425,-94.2433,2.0,242.675544,40.84760213,-99999.0,'11111222,11111222,99999999' 
TABS,ioos:station:wmo:42050:1,2013-06-02T23:00:00Z,28.8425,-94.2433,2.0,245.24765,38.02324684,-99999.0,'11111222,11111222,99999999' 
TABS,ioos:station:wmo:42050:1,2013-06-02T23:30:00Z,28.8425,-94.2433,2.0,245.5885624,36.05300126,-99999.0,'11111222,11111222,99999999' 
TABS,ioos:station:wmo:42050:1,2013-06-03T00:00:00Z,28.8425,-94.2433,2.0,243.3469039,35.06605909,-99999.0,'11111222,11111222,99999999' 
TABS,ioos:station:wmo:42050:1,2013-06-03T00:30:00Z,28.8425,-94.2433,2.0,245.6748421,36.61005326,-99999.0,'11111222,11111222,99999999' 
TABS,ioos:station:wmo:42050:1,2013-06-03T01:00:00Z,28.8425,-94.2433,2.0,256.0122833,34.09081988,-99999.0,'11111222,11111222,99999999' 
TABS,ioos:station:wmo:42050:1,2013-06-03T01:30:00Z,28.8425,-94.2433,2.0,259.2354906,26.5572909,-99999.0,'11111222,11111222,99999999' 
TABS,ioos:station:wmo:42050:1,2013-06-03T02:00:00Z,28.8425,-94.2433,2.0,261.3929913,22.78659694,-99999.0,'11111222,11111222,99999999' 
TABS,ioos:station:wmo:42050:1,2013-06-03T02:30:00Z,28.8425,-94.2433,2.0,265.0151738,21.98313217,-99999.0,'11111222,11111222,99999999' 
TABS,ioos:station:wmo:42050:1,2013-06-03T03:00:00Z,28.8425,-94.2433,2.0,278.8183427,20.02670717,-99999.0,'11111222,11111222,99999999' 
TABS,ioos:station:wmo:42050:1,2013-06-03T03:30:00Z,28.8425,-94.2433,2.0,290.8582049,15.11022171,-99999.0,'11111222,11111222,99999999' 
TABS,ioos:station:wmo:42050:1,2013-06-03T04:00:00Z,28.8425,-94.2433,2.0,289.8749492,10.82473094,-99999.0,'11111222,11111222,99999999' 
TABS,ioos:station:wmo:42050:1,2013-06-03T04:30:00Z,28.8425,-94.2433,2.0,285.1580759,19.08393303,-99999.0,'11111222,11111222,99999999' 
TABS,ioos:station:wmo:42050:1,2013-06-03T05:00:00Z,28.8425,-94.2433,2.0,297.6912566,17.7533349,-99999.0,'11111222,11111222,99999999' 
TABS,ioos:station:wmo:42050:1,2013-06-03T05:30:00Z,28.8425,-94.2433,2.0,298.9895735,17.02276711,-99999.0,'11111222,11111222,99999999' 
TABS,ioos:station:wmo:42050:1,2013-06-03T06:00:00Z,28.8425,-94.2433,2.0,298.3502491,12.63544222,-99999.0,'11111222,11111222,99999999' 
TABS,ioos:station:wmo:42050:1,2013-06-03T06:30:00Z,28.8425,-94.2433,2.0,297.6577793,10.55615934,-99999.0,'11111222,11111222,99999999' 
TABS,ioos:station:wmo:42050:1,2013-06-03T07:00:00Z,28.8425,-94.2433,2.0,283.6145718,6.585020881,-99999.0,'11133222,11111222,99999999' 
TABS,ioos:station:wmo:42050:1,2013-06-03T07:30:00Z,28.8425,-94.2433,2.0,288.7684371,6.527051402,-99999.0,'11133222,11111222,99999999' 
TABS,ioos:station:wmo:42050:1,2013-06-03T08:00:00Z,28.8425,-94.2433,2.0,278.3418289,6.134900162,-99999.0,'11133222,11111222,99999999' 
TABS,ioos:station:wmo:42050:1,2013-06-03T08:30:00Z,28.8425,-94.2433,2.0,286.6227782,4.998899879,-99999.0,'11133222,11111222,99999999' 
TABS,ioos:station:wmo:42050:1,2013-06-03T09:00:00Z,28.8425,-94.2433,2.0,304.8812855,2.535527559,-99999.0,'11133222,11111222,99999999' 
TABS,ioos:station:wmo:42050:1,2013-06-03T09:30:00Z,28.8425,-94.2433,2.0,293.7877455,1.661114084,-99999.0,'11133222,11111222,99999999' 
TABS,ioos:station:wmo:42050:1,2013-06-03T10:00:00Z,28.8425,-94.2433,2.0,155.6644474,2.18405586,-99999.0,'11133222,11111222,99999999' 
TABS,ioos:station:wmo:42050:1,2013-06-03T10:30:00Z,28.8425,-94.2433,2.0,144.0373564,4.546570136,-99999.0,'11133222,11111222,99999999' 
TABS,ioos:station:wmo:42050:1,2013-06-03T11:00:00Z,28.8425,-94.2433,2.0,130.8042549,5.508983572,-99999.0,'11133222,11111222,99999999' 
TABS,ioos:station:wmo:42050:1,2013-06-03T11:30:00Z,28.8425,-94.2433,2.0,174.4207293,6.068747812,-99999.0,'11133222,11111222,99999999' 
TABS,ioos:station:wmo:42050:1,2013-06-03T12:00:00Z,28.8425,-94.2433,2.0,184.2079395,5.996165441,-99999.0,'11133222,11111222,99999999' 
TABS,ioos:station:wmo:42050:1,2013-06-03T12:30:00Z,28.8425,-94.2433,2.0,206.8160737,5.098284025,-99999.0,'11133222,11111222,99999999' 
TABS,ioos:station:wmo:42050:1,2013-06-03T13:00:00Z,28.8425,-94.2433,2.0,224.2187511,5.706881811,-99999.0,'11133222,11111222,99999999' 
TABS,ioos:station:wmo:42050:1,2013-06-03T13:30:00Z,28.8425,-94.2433,2.0,200.4642017,3.661051761,-99999.0,'11133222,11111222,99999999' 
TABS,ioos:station:wmo:42050:1,2013-06-03T14:00:00Z,28.8425,-94.2433,2.0,220.8721023,5.501417999,-99999.0,'11133222,11111222,99999999' 
TABS,ioos:station:wmo:42050:1,2013-06-03T14:30:00Z,28.8425,-94.2433,2.0,213.7498366,2.64592139,-99999.0,'11133222,11111222,99999999' 
TABS,ioos:station:wmo:42050:1,2013-06-03T15:00:00Z,28.8425,-94.2433,2.0,192.8922728,5.467842353,-99999.0,'11133222,11111222,99999999' 
TABS,ioos:station:wmo:42050:1,2013-06-03T15:30:00Z,28.8425,-94.2433,2.0,200.450715,6.382264488,-99999.0,'11133222,11111222,99999999' 
TABS,ioos:station:wmo:42050:1,2013-06-03T16:00:00Z,28.8425,-94.2433,2.0,214.9966137,9.607132767,-99999.0,'11133222,11111222,99999999' 
TABS,ioos:station:wmo:42050:1,2013-06-03T16:30:00Z,28.8425,-94.2433,2.0,217.6149844,11.2229497,-99999.0,'11111222,11111222,99999999' 
TABS,ioos:station:wmo:42050:1,2013-06-03T17:00:00Z,28.8425,-94.2433,2.0,219.211405,12.97083266,-99999.0,'11111222,11111222,99999999' 
TABS,ioos:station:wmo:42050:1,2013-06-03T17:30:00Z,28.8425,-94.2433,2.0,220.3886177,15.21669149,-99999.0,'11111222,11111222,99999999' 
TABS,ioos:station:wmo:42050:1,2013-06-03T18:00:00Z,28.8425,-94.2433,2.0,227.8396085,23.40569589,-99999.0,'11111222,11111222,99999999' 
TABS,ioos:station:wmo:42050:1,2013-06-03T18:30:00Z,28.8425,-94.2433,2.0,239.035895,24.54830748,-99999.0,'11111222,11111222,99999999' 
TABS,ioos:station:wmo:42050:1,2013-06-03T19:00:00Z,28.8425,-94.2433,2.0,237.996598,26.09608783,-99999.0,'11111222,11111222,99999999' 
TABS,ioos:station:wmo:42050:1,2013-06-03T19:30:00Z,28.8425,-94.2433,2.0,238.3407569,30.67477954,-99999.0,'11111222,11111222,99999999' 
TABS,ioos:station:wmo:42050:1,2013-06-03T20:00:00Z,28.8425,-94.2433,2.0,240.112183,30.40348829,-99999.0,'11111222,11111222,99999999' 
TABS,ioos:station:wmo:42050:1,2013-06-03T20:30:00Z,28.8425,-94.2433,2.0,241.971093,32.218833,-99999.0,'11111222,11111222,99999999' 
TABS,ioos:station:wmo:42050:1,2013-06-03T21:00:00Z,28.8425,-94.2433,2.0,247.9073667,34.75147335,-99999.0,'11111222,11111222,99999999' 
TABS,ioos:station:wmo:42050:1,2013-06-03T21:30:00Z,28.8425,-94.2433,2.0,249.7691756,35.42541602,-99999.0,'11111222,11111222,99999999' 
TABS,ioos:station:wmo:42050:1,2013-06-03T22:00:00Z,28.8425,-94.2433,2.0,251.333347,34.46278282,-99999.0,'11111222,11111222,99999999' 
TABS,ioos:station:wmo:42050:1,2013-06-03T22:30:00Z,28.8425,-94.2433,2.0,255.9474717,34.96636241,-99999.0,'11111222,11111222,99999999' 
TABS,ioos:station:wmo:42050:1,2013-06-03T23:00:00Z,28.8425,-94.2433,2.0,262.2885787,33.83596459,-99999.0,'11111222,11111222,99999999' 
TABS,ioos:station:wmo:42050:1,2013-06-03T23:30:00Z,28.8425,-94.2433,2.0,265.123381,36.35156805,-99999.0,'11111222,11111222,99999999' 
TABS,ioos:station:wmo:42050:1,2013-06-04T00:00:00Z,28.8425,-94.2433,2.0,275.8576203,36.55082078,-99999.0,'11111222,11111222,99999999' 
TABS,ioos:station:wmo:42050:1,2013-06-04T00:30:00Z,28.8425,-94.2433,2.0,286.0544866,34.02702015,-99999.0,'11111222,11111222,99999999' 
TABS,ioos:station:wmo:42050:1,2013-06-04T01:00:00Z,28.8425,-94.2433,2.0,294.9267097,34.40479618,-99999.0,'11111222,11111222,99999999' 
TABS,ioos:station:wmo:42050:1,2013-06-04T01:30:00Z,28.8425,-94.2433,2.0,306.2043036,34.58833618,-99999.0,'11111222,11111222,99999999' 
TABS,ioos:station:wmo:42050:1,2013-06-04T02:00:00Z,28.8425,-94.2433,2.0,318.0189915,36.11963593,-99999.0,'11111222,11111222,99999999' 
TABS,ioos:station:wmo:42050:1,2013-06-04T02:30:00Z,28.8425,-94.2433,2.0,324.7882428,34.77255527,-99999.0,'11111222,11111222,99999999' 
TABS,ioos:station:wmo:42050:1,2013-06-04T03:00:00Z,28.8425,-94.2433,2.0,329.1794516,33.68757189,-99999.0,'11111222,11111222,99999999' 
TABS,ioos:station:wmo:42050:1,2013-06-04T03:30:00Z,28.8425,-94.2433,2.0,333.5734934,35.2092289,-99999.0,'11111222,11111222,99999999' 
TABS,ioos:station:wmo:42050:1,2013-06-04T04:00:00Z,28.8425,-94.2433,2.0,334.1188385,35.23399495,-99999.0,'11111222,11111222,99999999' 
TABS,ioos:station:wmo:42050:1,2013-06-04T04:30:00Z,28.8425,-94.2433,2.0,337.3763903,32.98846162,-99999.0,'11111222,11111222,99999999' 
TABS,ioos:station:wmo:42050:1,2013-06-04T05:00:00Z,28.8425,-94.2433,2.0,344.386835,26.78850686,-99999.0,'11111222,11111222,99999999' 
TABS,ioos:station:wmo:42050:1,2013-06-04T05:30:00Z,28.8425,-94.2433,2.0,351.5071226,20.31275708,-99999.0,'11111222,11111222,99999999' 
TABS,ioos:station:wmo:42050:1,2013-06-04T06:00:00Z,28.8425,-94.2433,2.0,2.654833226,17.48876782,-99999.0,'11111222,11111222,99999999' 
TABS,ioos:station:wmo:42050:1,2013-06-04T06:30:00Z,28.8425,-94.2433,2.0,7.910641857,14.38690029,-99999.0,'11111222,11111222,99999999' 
TABS,ioos:station:wmo:42050:1,2013-06-04T07:00:00Z,28.8425,-94.2433,2.0,9.573797325,11.00324498,-99999.0,'11111222,11111222,99999999' 
TABS,ioos:station:wmo:42050:1,2013-06-04T07:30:00Z,28.8425,-94.2433,2.0,23.36997271,9.22694424,-99999.0,'11133222,11111222,99999999' 
TABS,ioos:station:wmo:42050:1,2013-06-04T08:00:00Z,28.8425,-94.2433,2.0,23.18809103,7.060347017,-99999.0,'11133222,11111222,99999999' 
TABS,ioos:station:wmo:42050:1,2013-06-04T08:30:00Z,28.8425,-94.2433,2.0,48.90864038,6.846575786,-99999.0,'11133222,11111222,99999999' 
TABS,ioos:station:wmo:42050:1,2013-06-04T09:00:00Z,28.8425,-94.2433,2.0,81.82725423,5.697868022,-99999.0,'11133222,11111222,99999999' 
TABS,ioos:station:wmo:42050:1,2013-06-04T09:30:00Z,28.8425,-94.2433,2.0,72.45678331,4.876822736,-99999.0,'11133222,11111222,99999999' 
TABS,ioos:station:wmo:42050:1,2013-06-04T10:00:00Z,28.8425,-94.2433,2.0,97.36151288,6.009534092,-99999.0,'11133222,11111222,99999999' 
TABS,ioos:station:wmo:42050:1,2013-06-04T10:30:00Z,28.8425,-94.2433,2.0,103.9736836,6.667308302,-99999.0,'11133222,11111222,99999999' 
TABS,ioos:station:wmo:42050:1,2013-06-04T11:00:00Z,28.8425,-94.2433,2.0,114.7422422,7.311169537,-99999.0,'11133222,11111222,99999999' 
TABS,ioos:station:wmo:42050:1,2013-06-04T11:30:00Z,28.8425,-94.2433,2.0,96.23660232,6.719769341,-99999.0,'11133222,11111222,99999999' 
TABS,ioos:station:wmo:42050:1,2013-06-04T12:00:00Z,28.8425,-94.2433,2.0,89.7695898,7.460060321,-99999.0,'11133222,11111222,99999999' 
TABS,ioos:station:wmo:42050:1,2013-06-04T12:30:00Z,28.8425,-94.2433,2.0,86.36806645,8.998072016,-99999.0,'11133222,11111222,99999999' 
TABS,ioos:station:wmo:42050:1,2013-06-04T13:00:00Z,28.8425,-94.2433,2.0,78.87591704,9.070418954,-99999.0,'11133222,11111222,99999999' 
TABS,ioos:station:wmo:42050:1,2013-06-04T13:30:00Z,28.8425,-94.2433,2.0,75.29306788,10.35940635,-99999.0,'11111222,11111222,99999999' 
TABS,ioos:station:wmo:42050:1,2013-06-04T14:00:00Z,28.8425,-94.2433,2.0,79.42205427,8.443488615,-99999.0,'11133222,11111222,99999999' 
TABS,ioos:station:wmo:42050:1,2013-06-04T14:30:00Z,28.8425,-94.2433,2.0,60.63473832,8.238567837,-99999.0,'11133222,11111222,99999999' 
TABS,ioos:station:wmo:42050:1,2013-06-04T15:00:00Z,28.8425,-94.2433,2.0,63.96633091,8.680789135,-99999.0,'11133222,11111222,99999999' 
TABS,ioos:station:wmo:42050:1,2013-06-04T15:30:00Z,28.8425,-94.2433,2.0,63.06227501,9.62424023,-99999.0,'11133222,11111222,99999999' 
TABS,ioos:station:wmo:42050:1,2013-06-04T16:00:00Z,28.8425,-94.2433,2.0,75.31192976,7.887769013,-99999.0,'11133222,11111222,99999999' 